map of FKS home
FKS - Airport
Location
City:  Fukushima, Fukushima, Japan
Near (Alt.):Tamakawa
Name:Fukushima Airport
ICAO:RJSF
IATA:FKS

Details
Type:Airport (Aerodrome, Airfield)
Use:Public/Civil
Latitude:3713'39"N (37.227431)
Longitude:14025'50"E (140.430678)
Datum:WGS 1984
Elevation:1221 ft (372 m)
Variation:7.96W (WMM2015v2 magnetic declination)
-0.06 annual change
Runways:1
Longest:8202 × 197 ft (2500 × 60 m), paved

Time
Time Zone:UTC+9
Local Time:

Weather
METAR:RJSF 041100Z 34015KT 9999 -SHSN FEW020 BKN025 BKN030 00/M07 Q1017
TAF:RJSF 041105Z 0412/0518 32013KT 9999 FEW020 SCT040
TEMPO 0412/0418 32015G25KT
BECMG 0509/0512 16005KT

Related Locations
Nearby:
Farthest:SSMT: 11666 mi / 18774 km
Mostardas, RS, BR

Find:

   beyond  
but within

Other Information
Maps:
NOTAMs:
Links:
Sources:

  
  • flag of Japan
  • flag of Fukushima
  

Sectional Chart

Flight Planning
at skyvector.com

Satellite Image

Google Maps Satellite view

 

Copyright © 2004-2019 Karl L. Swartz. All rights reserved.
The Great Circle Mapper name and logo are trademarks of the Great Circle Mapper.
All other trademarks mentioned herein belong to their respective owners.
Please see credits for attibutions and further copyright information.

  Follow gcmap on Facebook Follow gcmap on Twitter GCmap on LinkedIn

hCard Microformat

Geo Microformat